Location: Rometta
(44.2000°N, 10.0500°E)
Time: 22:32:48
(UTC+00:00)

COSMOS 2455 - Pass Details

Date: 20 January 2021
Orbit: 901 x 908 km, 67.1° (Epoch: 04 March)

Event Time Altitude Azimuth Distance (km) Brightness Sun altitude
Rises 17:40:02 0° 213° (SSW) 3,517 6.7 -15.3°
Reaches altitude 10° 17:42:31 10° 215° (SW) 2,581 5.9 -15.8°
Maximum altitude 17:48:31 78° 302° (WNW) 931 3.0 -16.8°
Enters shadow 17:53:59 13° 29° (NNE) 2,385 4.7 -17.8°
